Location: Maddington
(51.2000°N, 1.9167°W)
Time: 14:37:31
(UTC+00:00)

Cosmos 1125 Rocket - Pass Details

Date: 21 June 2021
Orbit: 757 x 780 km, 74.0° (Epoch: 28 July)

Event Time Altitude Azimuth Distance (km) Brightness Sun altitude
Rises 02:07:17 0° 335° (NNW) 3,245 7.3 -11.0°
Reaches altitude 10° 02:09:40 10° 336° (NNW) 2,318 6.5 -10.8°
Maximum altitude 02:14:57 88° 62° (ENE) 779 3.6 -10.4°
Drops below altitude 10° 02:20:14 10° 156° (SSE) 2,317 5.7 -10.0°
Sets 02:22:36 0° 157° (SSE) 3,244 6.4 -9.8°
